View from above orbital plane
|
View from above satellite
|
Ground track
|
The orbit data is extracted from the following two-line orbital elements,
1 32785U 08021C 22179.84976448 .00000935 00000-0 10342-3 0 9997
2 32785 97.6577 150.3373 0012192 188.7798 171.3209 14.89625061768256
Epoch (UTC): | 28 June 2022 20:23:39 |
Eccentricity: | 0.0012192 |
inclination: | 97.6577° |
perigee height: | 590 km |
apogee height: | 607 km |
right ascension of ascending node: | 150.3373° |
argument of perigee: | 188.7798° |
revolutions per day: | 14.89625061 |
mean anomaly at epoch: | 171.3209° |
orbit number at epoch: | 76825 |
The dashed part of the orbit path shows where the satellite is in the earth's shadow,
|
|